Terug naar catalogus

STARLINK-34426

ActiefCommunicatieVLEO
NORAD 64345·PAYLOAD·🇺🇸 United States

Gelanceerd Jun 13, 2025 vanaf Vandenberg Space Force Base

Loading…

Volgende Passages (komende 24 uur)

TLE

VersSource: CelesTrak SupGP

Epoch: Sep 14, 2026, 23:07 UTC

1 64345C 25126B   26257.96368056  .00068479  00000+0  23212-2 0  2575
2 64345  69.9999 275.6749 0003412 265.2929  43.5673 15.30384711    12

Volg STARLINK-34426 in realtime met AllMySat

Download on the App Store